Regional Weather Roundup
Issued by NWS Jackson, KY

Home | Current Version | Previous Version | Graphics & Text | Print | Product List | Glossary On
Versions: 1 2 3 4 5 6 7 8 9 10 11 12 13 14 15 16 17 18 19 20 21 22 23 24 25 26 27 28 29 30 31 32 33 34 35 36 37 38 39 40 41 42 43 44 45 46 47 48 49 50
000
ASUS43 KJKL 241805
RWRJKL

EAST KENTUCKY HOURLY WEATHER ROUNDUP
NATIONAL WEATHER SERVICE JACKSON KY
200 PM EDT THU JUL 24 2014

NOTE: "FAIR" INDICATES FEW OR NO CLOUDS BELOW 12,000 FEET WITH
NO SIGNIFICANT WEATHER AND/OR OBSTRUCTIONS TO VISIBILITY.

* THESE REPORTS ARE NOT UNDER NWS QUALITY CONTROL AND MAY NOT
  REPORT WEATHER SUCH AS PRECIPITATION AND FOG.

KYZ079-080-083-085-087-088-110-112-115-119-120-241900
...EASTERN KENTUCKY...

CITY           SKY/WX    TMP DP  RH WIND       PRES   REMARKS
JACKSON        CLOUDY    64  62  93 VRB5      30.02F
6HR MIN TEMP:  64; 6HR MAX TEMP:  69; 6HR PCP:  0.12;

LONDON         CLOUDY    70  65  84 NW12      30.02S
6HR MIN TEMP:  70; 6HR MAX TEMP:  75; 6HR PCP:  0.21;

SOMERSET*      CLOUDY    72  66  83 N7        30.03F
MONTICELLO*    CLOUDY    72  68  87 N7        30.04S
6HR MIN TEMP:  70; 6HR MAX TEMP:  73; 6HR PCP:  0.64;

WILLIAMSBURG*  CLOUDY    72  72 100 NW10      30.01S
MIDDLESBORO*   CLOUDY    80  69  69 NW12      29.98F
6HR MIN TEMP:  67; 6HR MAX TEMP:  82;

HARLAN APT*    CLOUDY    77  70  78 MISG      29.98F
BLACK MTN*       N/A     68  64  88 NW1         N/A
PIKEVILLE APT* FOG       64  63  94 N7        30.00S VSB 3/4
BIG SANDY*     CLOUDY    63  63  99 N9        30.02R FOG
6HR MIN TEMP:  63; 6HR MAX TEMP:  69;

MOREHEAD APT*  CLOUDY    68  61  77 VRB5      30.05F
$$

KYZ035-036-041-042-044-050-067-078-099-241900
...CENTRAL KENTUCKY...

CITY           SKY/WX    TMP DP  RH WIND       PRES   REMARKS
MT STERLING*   CLOUDY    68  61  77 N8        30.05F
FLEMING/MASON* CLOUDY    70  60  71 NE3       30.05F
DANVILLE*      PTSUNNY   72  63  73 NE8       30.05F
RICHMOND*      CLOUDY    70  61  73 N9        30.03F
LEXINGTON      PTSUNNY   76  60  57 N12       30.05S
6HR MIN TEMP:  66; 6HR MAX TEMP:  76;

FRANKFORT      PTSUNNY   73  55  53 NE9G20    30.05S
6HR MIN TEMP:  66; 6HR MAX TEMP:  76;

$$

KYZ091>093-OHZ055-061-077-WVZ005-015-034-035-042-241900
...SOUTHERN OHIO/WEST VIRGINIA...

CITY           SKY/WX    TMP DP  RH WIND       PRES   REMARKS
COVINGTON      MOSUNNY   72  53  51 N12       30.06F
COLUMBUS       MOSUNNY   75  53  46 N10G21    30.03F
DAYTON         PTSUNNY   72  54  53 N13       30.09S
WILMINGTON     MOSUNNY   74  55  51 NE17G24   30.06S
HUNTINGTON     CLOUDY    65  63  93 N8        30.02S
CHARLESTON     LGT RAIN  65  64  97 NW8       30.00R FOG
PINEVILLE*     PTSUNNY   80  71  74 MISG      30.02R
BECKLEY        CLOUDY    71  67  87 N9        30.00S
BLUEFIELD      MOSUNNY   77  64  64 W9        30.00F
$$

VAZ002-007-008-TNZ017-027-036-066-071-241900
...SOUTHWEST VIRGINIA/EAST TENNESSEE...

CITY           SKY/WX    TMP DP  RH WIND       PRES   REMARKS
WISE*          CLOUDY    70  68  94 SW7       30.03S
JONESVILLE*    HVY RAIN  73  73 100 W6        30.00S
ABINGDON*      PTSUNNY   82  67  60 W12G17    29.97F
BRISTOL        MOSUNNY   84  65  52 SW13G23   29.95F
KNOXVILLE      MOSUNNY   83  69  62 W9        29.95F
OAK RIDGE      SUNNY     85  67  54 W8        29.97F
CROSSVILLE     MOSUNNY   79  66  64 W12       30.03F
NASHVILLE      CLOUDY    76  66  71 N10       30.03S
$$

...KEY TO REMARKS...
VSB - VISIBILITY IN MILES
WCI - WIND CHILL INDEX
HX  - HEAT INDEX

$$


USA.gov is the U.S. government's official web portal to all federal, state and local government web resources and services.